Location: Iesi
(43.5167°N, 13.2333°E)
Time: 18:33:21
(UTC+00:00)

Resurs 01 Rocket - Pass Details

Date: 08 August 2020
Orbit: 634 x 644 km, 98.0° (Epoch: 23 September)

Event Time Altitude Azimuth Distance (km) Brightness Sun altitude
Exits shadow 21:05:07 - 230° (SW) 2,398 4.5 -23.9°
Reaches altitude 10° 21:06:59 10° 250° (WSW) 2,025 4.3 -24.1°
Maximum altitude 21:08:34 12° 271° (W) 1,914 4.5 -24.2°
Drops below altitude 10° 21:10:10 10° 292° (WNW) 2,033 4.9 -24.4°
Sets 21:13:54 0° 325° (NW) 2,952 6.4 -24.7°
